DW0156 Weather Reports


time (UTC)temp
C
wind
direction
speed
KPH
gust
KPH
rain 1hr
cm
rain 24hr
cm
rain mn
cm
humidity
%
barometer
mb
20260505122420 14 263 0.0 0.0 0.00 0.28 0.28 80 1024.3
20260505121922 14 263 0.0 0.0 0.00 0.28 0.28 80 1024.3
20260505121420 14 263 0.0 0.0 0.00 0.28 0.28 80 1024.3
20260505120919 14 263 0.0 0.0 0.00 0.28 0.28 80 1024.3
20260505115748 14 263 0.0 0.0 0.00 0.28 0.28 80 1024.3
20260505115243 14 263 0.0 0.0 0.00 0.28 0.28 80 1024.3
20260505114740 14 263 0.0 0.0 0.00 0.28 0.28 80 1024.3
20260505113605 14 263 0.0 0.0 0.00 0.28 0.28 80 1024.3
20260505112441 14 263 0.0 0.0 0.00 0.28 0.28 79 1024.4
20260505111926 14 263 0.0 0.0 0.00 0.28 0.28 79 1024.4
20260505110801 14 263 0.0 0.0 0.00 0.28 0.28 79 1024.4
20260505110248 14 263 0.0 0.0 0.00 0.28 0.28 79 1024.4
20260505102213 14 263 0.0 0.0 0.00 0.33 0.28 79 1024.4
20260505101658 14 263 0.0 0.0 0.00 0.33 0.28 78 1024.4
20260505101138 14 263 0.0 0.0 0.00 0.33 0.28 78 1024.4
20260505100624 14 263 0.0 0.0 0.00 0.33 0.28 78 1024.4
20260505100121 14 263 0.0 0.0 0.00 0.33 0.28 78 1024.4
20260505095604 14 263 0.0 0.0 0.00 0.33 0.28 78 1024.4
20260505095055 14 263 0.0 0.0 0.00 0.33 0.28 78 1024.4
20260505094549 15 263 0.0 0.0 0.00 0.33 0.28 77 1024.4
20260505094053 15 263 0.0 0.0 0.00 0.33 0.28 77 1024.3
20260505093555 15 263 0.0 0.0 0.00 0.33 0.28 77 1024.3
20260505092433 15 263 0.0 0.0 0.00 0.33 0.28 74 1024.2
20260505091915 15 263 0.0 0.0 0.00 0.33 0.28 74 1024.2
20260505091413 15 263 0.0 3.2 0.00 0.33 0.28 74 1024.2
20260505090903 15 263 0.0 0.0 0.00 0.33 0.28 74 1024.0
20260505085140 15 263 0.0 0.0 0.00 0.33 0.28 72 1023.8
20260505084632 15 263 0.0 0.0 0.00 0.33 0.28 72 1023.8
20260505084136 15 263 0.0 0.0 0.00 0.33 0.28 71 1023.7
20260505083644 15 263 0.0 0.0 0.00 0.33 0.28 70 1023.7
20260505083131 15 263 0.0 0.0 0.00 0.33 0.28 70 1023.7
20260505082618 15 263 0.0 0.0 0.00 0.33 0.28 70 1023.5
20260505081514 15 263 0.0 0.0 0.00 0.33 0.28 69 1023.5
20260505081021 15 263 0.0 3.2 0.00 0.33 0.28 69 1023.4
20260505075904 16 263 1.6 3.2 0.00 0.33 0.28 68 1023.3
20260505075408 16 263 1.6 3.2 0.00 0.33 0.28 68 1023.3
20260505074855 16 263 1.6 3.2 0.00 0.33 0.28 67 1023.3
20260505073742 16 263 1.6 6.4 0.00 0.33 0.28 66 1023.3
20260505073251 16 263 1.6 6.4 0.00 0.33 0.28 66 1023.3
20260505072759 16 263 3.2 6.4 0.00 0.33 0.28 66 1023.2
20260505072258 16 263 1.6 8.0 0.00 0.33 0.28 66 1023.2
20260505071805 17 263 1.6 8.0 0.00 0.33 0.28 66 1023.2
20260505071307 17 263 1.6 8.0 0.00 0.33 0.28 65 1023.2
20260505070756 17 263 3.2 8.0 0.00 0.33 0.28 65 1023.2
20260505070238 17 263 3.2 11.3 0.00 0.33 0.28 64 1023.2
20260505065725 17 263 3.2 11.3 0.00 0.33 0.28 64 1023.3
20260505065219 17 263 3.2 14.5 0.00 0.33 0.28 63 1023.3
20260505064723 17 263 4.8 14.5 0.00 0.33 0.28 62 1023.3
20260505063620 17 263 6.4 14.5 0.00 0.33 0.28 60 1023.2
20260505063122 17 263 4.8 14.5 0.00 0.33 0.28 61 1023.2
20260505062630 17 263 4.8 14.5 0.00 0.33 0.28 61 1023.2
20260505062124 17 263 4.8 14.5 0.00 0.33 0.28 61 1023.2
20260505061606 17 263 3.2 12.9 0.00 0.33 0.28 61 1023.2
20260505061056 17 263 3.2 12.9 0.00 0.33 0.28 61 1023.2
20260505060540 17 263 3.2 12.9 0.00 0.33 0.28 62 1023.2
20260505055407 17 263 4.8 12.9 0.00 0.33 0.28 59 1023.1
20260505054853 17 263 3.2 12.9 0.00 0.33 0.28 60 1023.1
20260505054402 17 263 4.8 14.5 0.00 0.33 0.28 62 1022.9
20260505053853 17 263 4.8 14.5 0.00 0.33 0.28 63 1022.9
20260505053342 16 263 3.2 16.1 0.00 0.33 0.28 64 1022.9
20260505052828 16 263 3.2 16.1 0.00 0.33 0.28 63 1022.8
20260505052311 16 263 4.8 16.1 0.00 0.33 0.28 63 1022.8
20260505051806 16 263 6.4 16.1 0.00 0.33 0.28 63 1022.8
20260505051314 16 263 4.8 14.5 0.00 0.33 0.28 63 1022.8
20260505050813 16 263 4.8 14.5 0.00 0.33 0.28 64 1022.8
20260505041339 17 263 8.0 17.7 0.00 0.33 0.28 59 1022.9
20260505040834 17 263 6.4 17.7 0.00 0.33 0.28 60 1022.9
20260505040321 17 263 3.2 16.1 0.00 0.33 0.28 61 1022.9
20260505035804 16 263 3.2 11.3 0.00 0.33 0.28 62 1023.1
20260505034628 16 263 3.2 9.7 0.00 0.33 0.28 64 1023.1
20260505033528 16 263 1.6 9.7 0.00 0.33 0.28 66 1023.2
20260505033016 16 263 1.6 9.7 0.00 0.33 0.28 67 1023.2
20260505032503 16 263 1.6 9.7 0.00 0.33 0.28 69 1023.3
20260505031949 16 263 0.0 6.4 0.00 0.33 0.28 69 1023.3
20260505031443 16 263 1.6 1.6 0.00 0.33 0.28 69 1023.3
20260505030927 16 263 3.2 9.7 0.00 0.33 0.28 69 1023.6
20260505030408 16 263 3.2 9.7 0.00 0.33 0.28 70 1023.6
20260505023929 16 263 4.8 9.7 0.00 0.33 0.28 71 1023.9
20260505023411 16 263 4.8 9.7 0.00 0.33 0.28 71 1023.9
20260505022910 16 263 3.2 9.7 0.00 0.33 0.28 71 1023.9
20260505022416 16 263 1.6 9.7 0.00 0.33 0.28 71 1023.8
20260505021920 16 263 3.2 9.7 0.00 0.33 0.28 69 1023.8
20260505021415 16 263 3.2 9.7 0.00 0.33 0.28 69 1023.8
20260505020904 16 263 3.2 9.7 0.00 0.33 0.28 68 1023.8
20260505015738 16 263 4.8 9.7 0.00 0.36 0.28 69 1023.9
20260505015242 16 263 3.2 9.7 0.00 0.36 0.28 69 1023.9
20260505014736 16 263 1.6 8.0 0.00 0.36 0.28 70 1023.9
20260505013616 15 263 1.6 4.8 0.00 0.36 0.28 72 1023.9
20260505013104 15 263 1.6 6.4 0.00 0.36 0.28 73 1023.9
20260505012559 15 263 1.6 6.4 0.00 0.36 0.28 74 1023.8
20260505012043 15 263 1.6 6.4 0.00 0.36 0.28 75 1023.8
20260505011527 15 263 1.6 4.8 0.00 0.36 0.28 76 1023.8
20260505011012 15 263 0.0 3.2 0.00 0.36 0.28 77 1023.7
20260505010516 15 263 0.0 3.2 0.00 0.36 0.28 78 1023.7
20260505010026 15 263 0.0 6.4 0.00 0.36 0.28 78 1023.7
20260505005534 15 263 0.0 4.8 0.00 0.36 0.28 80 1023.5
20260505005044 15 263 0.0 4.8 0.00 0.36 0.28 81 1023.5
20260505004542 15 263 0.0 3.2 0.00 0.36 0.28 82 1023.5
20260505004038 15 263 0.0 3.2 0.00 0.36 0.28 83 1023.3
20260505003533 15 263 0.0 3.2 0.00 0.36 0.28 84 1023.3
20260505003023 15 263 0.0 1.6 0.00 0.36 0.28 86 1023.3
20260505002503 15 263 0.0 6.4 0.00 0.36 0.28 88 1023.3
20260505002012 15 263 0.0 6.4 0.00 0.36 0.28 88 1023.3
20260505001458 14 263 0.0 3.2 0.00 0.36 0.28 89 1023.3
20260505000947 14 263 0.0 0.0 0.00 0.36 0.28 90 1023.2
20260505000445 13 263 1.6 4.8 0.00 0.36 0.28 90 1023.2
20260504235926 13 263 0.0 4.8 0.00 0.36 0.28 90 1023.2
20260504235425 14 263 0.0 4.8 0.00 0.36 0.28 91 1023.2
20260504234918 13 263 0.0 0.0 0.00 0.36 0.28 92 1023.2
20260504234359 13 263 0.0 0.0 0.00 0.36 0.28 92 1023.1
20260504233249 13 263 0.0 3.2 0.00 0.36 0.28 92 1023.1
20260504231440 13 263 0.0 0.0 0.00 0.36 0.28 93 1022.9
20260504230946 13 263 0.0 0.0 0.00 0.36 0.28 93 1022.9
20260504230453 13 263 0.0 3.2 0.00 0.36 0.28 92 1022.9
20260504225958 13 263 0.0 0.0 0.00 0.36 0.28 93 1022.9
20260504225506 13 263 0.0 1.6 0.00 0.36 0.28 93 1022.8
20260504224955 13 263 0.0 1.6 0.00 0.36 0.28 92 1022.8
20260504223813 12 263 0.0 6.4 0.00 0.36 0.28 92 1022.7
20260504223255 12 263 0.0 6.4 0.00 0.36 0.28 92 1022.7
20260504222736 12 263 0.0 1.6 0.00 0.36 0.28 93 1022.5
20260504222219 12 263 0.0 1.6 0.00 0.36 0.28 93 1022.5
20260504221659 12 263 0.0 1.6 0.00 0.36 0.28 93 1022.5
20260504221155 12 263 0.0 0.0 0.00 0.36 0.28 92 1022.3
20260504220701 12 263 0.0 3.2 0.00 0.36 0.28 92 1022.3
20260504220157 12 263 0.0 1.6 0.00 0.36 0.28 92 1022.3
20260504215658 12 263 0.0 0.0 0.00 0.36 0.28 92 1022.2
20260504215207 12 263 0.0 3.2 0.00 0.36 0.28 92 1022.2
20260504214647 12 263 0.0 0.0 0.00 0.36 0.28 92 1022.2
20260504213531 12 263 0.0 0.0 0.00 0.36 0.28 92 1022.2
20260504213023 12 263 0.0 0.0 0.00 0.36 0.28 92 1022.2
20260504212525 12 263 0.0 0.0 0.00 0.36 0.28 92 1021.9
20260504211350 12 263 0.0 0.0 0.00 0.36 0.28 92 1021.7
20260504210845 12 263 0.0 1.6 0.00 0.36 0.28 92 1021.7
20260504210353 12 263 1.6 3.2 0.00 0.36 0.28 92 1021.7
20260504205841 12 263 1.6 6.4 0.00 0.36 0.28 92 1021.7
20260504204714 12 263 0.0 3.2 0.00 0.36 0.25 92 1021.7
20260504204202 12 263 0.0 0.0 0.00 0.36 0.25 92 1021.6
20260504203645 12 263 0.0 0.0 0.00 0.36 0.25 92 1021.6
20260504203125 12 263 0.0 0.0 0.00 0.36 0.25 92 1021.6
20260504202622 12 263 0.0 0.0 0.00 0.36 0.25 92 1021.3
20260504200240 12 263 0.0 0.0 0.00 0.36 0.25 92 1021.2
20260504195732 12 263 0.0 0.0 0.00 0.36 0.25 92 1021.1
20260504194556 12 263 0.0 0.0 0.00 0.33 0.23 92 1021.1
20260504193424 12 263 0.0 0.0 0.00 0.33 0.23 92 1021.0
20260504192400 12 263 0.0 0.0 0.00 0.33 0.23 92 1020.9
20260504191859 12 263 0.0 0.0 0.00 0.33 0.23 92 1020.9
20260504190715 12 263 0.0 0.0 0.00 0.33 0.23 92 1020.7
20260504190210 12 263 0.0 0.0 0.00 0.33 0.23 92 1020.7
20260504185650 12 263 0.0 0.0 0.00 0.33 0.23 92 1020.6
20260504185144 12 263 0.0 0.0 0.00 0.33 0.23 92 1020.6
20260504184640 12 263 0.0 0.0 0.00 0.33 0.23 92 1020.6
20260504184149 12 263 0.0 0.0 0.00 0.33 0.23 92 1020.6
20260504183650 12 263 0.0 0.0 0.00 0.33 0.23 91 1020.6
20260504183134 12 263 0.0 0.0 0.00 0.33 0.23 91 1020.6
20260504182616 12 263 0.0 0.0 0.00 0.33 0.23 91 1020.6
20260504182102 12 263 0.0 0.0 0.00 0.33 0.23 91 1020.6
20260504181541 12 263 0.0 4.8 0.00 0.33 0.23 91 1020.6
20260504181043 12 263 1.6 4.8 0.00 0.33 0.23 91 1020.5
20260504180526 12 263 1.6 4.8 0.08 0.33 0.23 92 1020.5
20260504180026 12 263 0.0 4.8 0.10 0.33 0.23 92 1020.5
20260504175508 12 263 0.0 1.6 0.23 0.33 0.23 92 1020.6
20260504175004 12 263 0.0 3.2 0.28 0.30 0.20 92 1020.6
20260504173816 12 263 0.0 0.0 0.00 0.23 0.13 91 1020.6
20260504173303 12 263 0.0 0.0 0.00 0.23 0.13 91 1020.6
20260504172755 12 263 0.0 0.0 0.00 0.23 0.13 91 1020.6
20260504172259 12 263 0.0 3.2 0.00 0.23 0.13 91 1020.6
20260504171807 12 263 0.0 3.2 0.00 0.23 0.13 91 1020.6
20260504170639 12 263 0.0 0.0 0.00 0.23 0.13 91 1020.6
20260504170125 12 263 0.0 0.0 0.00 0.23 0.13 91 1020.6
20260504150650 12 263 0.0 1.6 0.00 0.15 0.00 90 1020.5
20260504150145 12 263 0.0 1.6 0.00 0.15 0.00 90 1020.5
20260504141006 12 263 0.0 3.2 0.00 0.38 0.38 89 1020.2
20260504130402 13 263 0.0 0.0 0.00 0.46 0.38 88 1020.1